H1 CPF 2 NER 2024 8 1 9 214 01 glonass139 H2 1808601 9139 43687 2024 8 1 0 0 0 2024 8 4 23 45 0 900 1 1 0 0 0 1 H9 10 0 60523 0.00000 0 -9516986.820 -16299274.302 -17138782.390 10 0 60523 900.00000 0 -9821419.137 -18255270.211 -14846268.681 10 0 60523 1800.00000 0 -10212747.019 -19888586.544 -12265020.692 10 0 60523 2700.00000 0 -10640527.114 -21166458.432 -9445313.422 10 0 60523 3600.00000 0 -11050275.443 -22068434.567 -6442029.290 10 0 60523 4500.00000 0 -11385955.892 -22587047.497 -3313582.928 10 0 60523 5400.00000 0 -11592543.615 -22727953.165 -120779.387 10 0 60523 6300.00000 0 -11618554.294 -22509535.635 3074371.430 10 0 60523 7200.00000 0 -11418431.946 -21961995.390 6209860.466 10 0 60523 8100.00000 0 -10954694.200 -21125961.265 9224881.597 10 0 60523 9000.00000 0 -10199744.552 -20050685.776 12061006.735 10 0 60523 9900.00000 0 -9137275.298 -18791900.828 14663311.320 10 0 60523 10800.00000 0 -7763202.253 -17409424.508 16981428.978 10 0 60523 11700.00000 0 -6086092.011 -15964619.568 18970515.782 10 0 60523 12600.00000 0 -4127063.658 -14517809.863 20592106.495 10 0 60523 13500.00000 0 -1919168.581 -13125762.231 21814847.494 10 0 60523 14400.00000 0 493726.598 -11839338.114 22615093.449 10 0 60523 15300.00000 0 3058508.568 -10701411.876 22977357.339 10 0 60523 16200.00000 0 5714773.637 -9745141.502 22894606.002 10 0 60523 17100.00000 0 8397092.318 -8992662.718 22368396.056 10 0 60523 18000.00000 0 11037490.060 -8454260.164 21408847.679 10 0 60523 18900.00000 0 13568043.120 -8128049.612 20034456.435 10 0 60523 19800.00000 0 15923483.635 -8000184.276 18271746.027 10 0 60523 20700.00000 0 18043707.191 -8045576.689 16154767.640 10 0 60523 21600.00000 0 19876079.807 -8229106.292 13724454.220 10 0 60523 22500.00000 0 21377449.039 -8507262.622 11027840.790 10 0 60523 23400.00000 0 22515775.574 -8830155.624 8117164.569 10 0 60523 24300.00000 0 23271317.073 -9143808.956 5048861.195 10 0 60523 25200.00000 0 23637314.249 -9392639.834 1882475.631 10 0 60523 26100.00000 0 23620149.780 -9522020.603 -1320491.514 10 0 60523 27000.00000 0 23238972.621 -9480813.263 -4497779.944 10 0 60523 27900.00000 0 22524802.855 -9223768.769 -7587584.372 10 0 60523 28800.00000 0 21519154.204 -8713688.262 -10529763.635 10 0 60523 29700.00000 0 20272231.932 -7923253.062 -13267019.900 10 0 60523 30600.00000 0 18840782.035 -6836444.147 -15746023.991 10 0 60523 31500.00000 0 17285682.574 -5449489.092 -17918463.930 10 0 60523 32400.00000 0 15669379.075 -3771294.480 -19741995.341 10 0 60523 33300.00000 0 14053272.532 -1823343.680 -21181074.463 10 0 60523 34200.00000 0 12495170.582 360937.404 -22207656.935 10 0 60523 35100.00000 0 11046909.558 2737321.338 -22801748.379 10 0 60523 36000.00000 0 9752247.742 5252380.177 -22951795.894 10 0 60523 36900.00000 0 8645118.452 7845480.176 -22654912.787 10 0 60523 37800.00000 0 7748316.127 10451087.243 -21916932.324 10 0 60523 38700.00000 0 7072670.037 13001287.046 -20752289.636 10 0 60523 39600.00000 0 6616739.472 15428414.578 -19183734.389 10 0 60523 40500.00000 0 6367042.013 17667683.431 -17241880.184 10 0 60523 41400.00000 0 6298803.832 19659705.051 -14964599.866 10 0 60523 42300.00000 0 6377198.863 21352792.910 -12396279.040 10 0 60523 43200.00000 0 6559022.908 22704955.686 -9586942.912 10 0 60523 44100.00000 0 6794730.433 23685496.774 -6591274.072 10 0 60523 45000.00000 0 7030746.544 24276154.088 -3467541.074 10 0 60523 45900.00000 0 7211955.131 24471733.654 -276459.368 10 0 60523 46800.00000 0 7284257.015 24280211.895 2919992.644 10 0 60523 47700.00000 0 7197089.199 23722303.881 6059778.822 10 0 60523 48600.00000 0 6905798.355 22830517.254 9082008.042 10 0 60523 49500.00000 0 6373768.147 21647732.976 11928111.074 10 0 60523 50400.00000 0 5574210.668 20225373.623 14542968.931 10 0 60523 51300.00000 0 4491546.625 18621236.830 16875971.404 10 0 60523 52200.00000 0 3122316.321 16897084.990 18881986.094 10 0 60523 53100.00000 0 1475583.104 15116091.983 20522220.265 10 0 60523 54000.00000 0 -427187.916 13340253.081 21764960.061 10 0 60523 54900.00000 0 -2552771.514 11627865.232 22586174.061 10 0 60523 55800.00000 0 -4857318.563 10031181.621 22969970.601 10 0 60523 56700.00000 0 -7287940.869 8594336.917 22908900.979 10 0 60523 57600.00000 0 -9784680.391 7351628.282 22404103.196 10 0 60523 58500.00000 0 -12282782.801 6326222.576 21465283.630 10 0 60523 59400.00000 0 -14715182.909 5529342.635 20110536.695 10 0 60523 60300.00000 0 -17015100.499 4959965.934 18366005.239 10 0 60523 61200.00000 0 -19118640.305 4605047.886 16265387.195 10 0 60523 62100.00000 0 -20967289.232 4440260.423 13849296.745 10 0 60523 63000.00000 0 -22510207.633 4431215.147 11164490.904 10 0 60523 63900.00000 0 -23706219.415 4535120.055 8262975.217 10 0 60523 64800.00000 0 -24525417.713 4702800.508 5201004.687 10 0 60523 65700.00000 0 -24950318.457 4880999.515 2037998.450 10 0 60523 66600.00000 0 -24976512.640 5014860.210 -1164611.231 10 0 60523 67500.00000 0 -24612788.978 5050485.252 -4344573.368 10 0 60523 68400.00000 0 -23880720.815 4937464.107 -7440032.583 10 0 60523 69300.00000 0 -22813733.768 4631260.103 -10390739.096 10 0 60523 70200.00000 0 -21455692.708 4095354.718 -13139229.953 10 0 60523 71100.00000 0 -19859067.133 3303056.589 -15631957.578 10 0 60523 72000.00000 0 -18082752.081 2238896.810 -17820342.583 10 0 60523 72900.00000 0 -16189636.422 899549.589 -19661729.462 10 0 60523 73800.00000 0 -14244021.116 -705762.478 -21120225.768 10 0 60523 74700.00000 0 -12308996.412 -2555397.392 -22167407.807 10 0 60523 75600.00000 0 -10443888.549 -4615953.022 -22782878.763 10 0 60523 76500.00000 0 -8701883.429 -6843430.269 -22954668.166 10 0 60523 77400.00000 0 -7127927.069 -9184852.178 -22679464.896 10 0 60523 78300.00000 0 -5756990.659 -11580271.807 -21962679.307 10 0 60523 79200.00000 0 -4612772.466 -13965085.130 -20818333.466 10 0 60523 80100.00000 0 -3706890.110 -16272552.332 -19268781.931 10 0 60523 81000.00000 0 -3038595.896 -18436422.035 -17344268.875 10 0 60523 81900.00000 0 -2595025.580 -20393548.687 -15082330.604 10 0 60523 82800.00000 0 -2351968.364 -22086393.583 -12527055.601 10 0 60523 83700.00000 0 -2275123.789 -23465304.991 -9728217.104 10 0 60523 84600.00000 0 -2321790.637 -24490482.267 -6740295.721 10 0 60523 85500.00000 0 -2442914.757 -25133542.224 -3621411.828 10 0 60524 0.00000 0 -2585407.683 -25378622.950 -432189.528 10 0 60524 900.00000 0 -2694636.786 -25222979.939 2765426.822 10 0 60524 1800.00000 0 -2716980.456 -24677050.542 5909375.644 10 0 60524 2700.00000 0 -2602339.920 -23763985.810 8938682.707 10 0 60524 3600.00000 0 -2306500.991 -22518670.255 11794639.513 10 0 60524 4500.00000 0 -1793246.068 -20986271.943 14421934.498 10 0 60524 5400.00000 0 -1036127.417 -19220384.434 16769715.403 10 0 60524 6300.00000 0 -19827.206 -17280838.769 18792563.055 10 0 60524 7200.00000 0 1258952.746 -15231276.938 20451358.776 10 0 60524 8100.00000 0 2791108.975 -13136587.679 21714029.847 10 0 60524 9000.00000 0 4555278.528 -11060310.624 22556159.906 10 0 60524 9900.00000 0 6518500.082 -9062115.730 22961453.577 10 0 60524 10800.00000 0 8637367.594 -7195461.466 22922047.288 10 0 60524 11700.00000 0 10859629.887 -5505527.661 22438660.862 10 0 60524 12600.00000 0 13126171.310 -4027507.583 21520587.087 10 0 60524 13500.00000 0 15373292.908 -2785329.030 20185519.209 10 0 60524 14400.00000 0 17535201.103 -1790856.718 18459218.973 10 0 60524 15300.00000 0 19546601.926 -1043608.534 16375030.587 10 0 60524 16200.00000 0 21345294.181 -530997.177 13973248.712 10 0 60524 17100.00000 0 22874654.368 -229086.982 11300351.316 10 0 60524 18000.00000 0 24085910.078 -103834.345 8408110.884 10 0 60524 18900.00000 0 24940106.798 -112759.824 5352600.054 10 0 60524 19800.00000 0 25409685.290 -206981.715 2193110.036 10 0 60524 20700.00000 0 25479602.507 -333525.341 -1008997.667 10 0 60524 21600.00000 0 25147947.901 -437810.265 -4191484.056 10 0 60524 22500.00000 0 24426027.978 -466209.664 -7292446.530 10 0 60524 23400.00000 0 23337914.347 -368572.609 -10251529.614 10 0 60524 24300.00000 0 21919473.237 -100601.216 -13011108.149 10 0 60524 25200.00000 0 20216916.512 374019.566 -15517418.960 10 0 60524 26100.00000 0 18284934.631 1081831.362 -17721617.901 10 0 60524 27000.00000 0 16184489.843 2038228.560 -19580740.788 10 0 60524 27900.00000 0 13980362.358 3246561.148 -21058548.730 10 0 60524 28800.00000 0 11738552.731 4697753.757 -22126240.720 10 0 60524 29700.00000 0 9523649.730 6370458.502 -22763019.260 10 0 60524 30600.00000 0 7396274.213 8231736.477 -22956497.773 10 0 60524 31500.00000 0 5410706.240 10238240.209 -22702941.837 10 0 60524 32400.00000 0 3612794.616 12337848.147 -22007339.643 10 0 60524 33300.00000 0 2038235.916 14471683.030 -20883300.521 10 0 60524 34200.00000 0 711294.276 16576429.656 -19352783.805 10 0 60524 35100.00000 0 -355985.626 18586854.934 -17445663.679 10 0 60524 36000.00000 0 -1164040.921 20438424.504 -15199138.885 10 0 60524 36900.00000 0 -1725519.043 22069906.100 -12656999.326 10 0 60524 37800.00000 0 -2064485.783 23425850.467 -9868764.401 10 0 60524 38700.00000 0 -2215148.378 24458845.862 -6888710.479 10 0 60524 39600.00000 0 -2220149.482 25131451.786 -3774807.174 10 0 60524 40500.00000 0 -2128505.972 25417731.339 -587583.818 10 0 60524 41400.00000 0 -1993281.280 25304318.571 2611051.179 10 0 60524 42300.00000 0 -1869090.943 24790976.977 5759014.530 10 0 60524 43200.00000 0 -1809547.772 23890626.729 8795252.099 10 0 60524 44100.00000 0 -1864755.112 22628840.589 11660919.282 10 0 60524 45000.00000 0 -2078954.323 21042830.605 14300514.997 10 0 60524 45900.00000 0 -2488425.619 19179968.768 16662947.844 10 0 60524 46800.00000 0 -3119730.531 17095903.923 18702514.588 10 0 60524 47700.00000 0 -3988369.680 14852353.632 20379773.087 10 0 60524 48600.00000 0 -5097912.085 12514662.691 21662293.976 10 0 60524 49500.00000 0 -6439632.630 10149229.135 22525277.855 10 0 60524 50400.00000 0 -7992673.281 7820903.711 22952027.164 10 0 60524 51300.00000 0 -9724722.105 5590469.409 22934264.586 10 0 60524 52200.00000 0 -11593182.949 3512304.194 22472292.404 10 0 60524 53100.00000 0 -13546788.459 1632322.456 21574989.924 10 0 60524 54000.00000 0 -15527590.951 -13720.802 20259648.777 10 0 60524 54900.00000 0 -17473249.942 -1401493.742 18551648.579 10 0 60524 55800.00000 0 -19319522.683 -2518867.787 16483978.209 10 0 60524 56700.00000 0 -21002855.306 -3366182.110 14096610.693 10 0 60524 57600.00000 0 -22462967.489 -3955981.823 11435742.364 10 0 60524 58500.00000 0 -23645323.248 -4312240.840 8552909.699 10 0 60524 59400.00000 0 -24503384.528 -4469101.997 5503999.742 10 0 60524 60300.00000 0 -25000552.778 -4469187.243 2348172.370 10 0 60524 61200.00000 0 -25111716.162 -4361549.056 -853285.170 10 0 60524 62100.00000 0 -24824336.203 -4199349.695 -4038149.380 10 0 60524 63000.00000 0 -24139026.780 -4037366.778 -7144473.897 10 0 60524 63900.00000 0 -23069599.635 -3929431.419 -10111800.920 10 0 60524 64800.00000 0 -21642573.077 -3925908.428 -12882346.290 10 0 60524 65700.00000 0 -19896163.371 -4071326.553 -15402134.195 10 0 60524 66600.00000 0 -17878800.282 -4402260.616 -17622058.364 10 0 60524 67500.00000 0 -15647228.598 -4945556.781 -19498848.150 10 0 60524 68400.00000 0 -13264274.954 -5716977.658 -20995919.896 10 0 60524 69300.00000 0 -10796373.654 -6720326.034 -22084096.359 10 0 60524 70200.00000 0 -8310955.198 -7947085.657 -22742179.794 10 0 60524 71100.00000 0 -5873807.006 -9376595.411 -22957367.309 10 0 60524 72000.00000 0 -3546516.851 -10976750.503 -22725500.358 10 0 60524 72900.00000 0 -1384105.821 -12705201.834 -22051143.614 10 0 60524 73800.00000 0 567050.605 -14511003.570 -20947491.867 10 0 60524 74700.00000 0 2270927.056 -16336639.815 -19436107.068 10 0 60524 75600.00000 0 3703108.109 -18120345.254 -17546490.990 10 0 60524 76500.00000 0 4851552.105 -19798622.130 -15315502.223 10 0 60524 77400.00000 0 5716828.670 -21308847.590 -12786629.402 10 0 60524 78300.00000 0 6311821.953 -22591861.644 -10009135.372 10 0 60524 79200.00000 0 6660914.257 -23594426.884 -7037089.587 10 0 60524 80100.00000 0 6798686.605 -24271456.554 -3928308.297 10 0 60524 81000.00000 0 6768193.163 -24587917.533 -743223.869 10 0 60524 81900.00000 0 6618884.252 -24520328.675 2456294.140 10 0 60524 82800.00000 0 6404267.253 -24057792.124 5608142.623 10 0 60524 83700.00000 0 6179405.466 -23202515.036 8651189.533 10 0 60524 84600.00000 0 5998361.367 -21969800.656 11526455.970 10 0 60524 85500.00000 0 5911692.623 -20387509.855 14178252.951 10 0 60525 0.00000 0 5964106.544 -18495016.542 16555251.144 10 0 60525 900.00000 0 6192371.641 -16341699.889 18611464.867 10 0 60525 1800.00000 0 6623573.734 -13985038.969 20307129.234 10 0 60525 2700.00000 0 7273789.598 -11488385.493 21609458.927 10 0 60525 3600.00000 0 8147233.561 -8918509.019 22493271.944 10 0 60525 4500.00000 0 9235912.832 -6343014.602 22941468.738 10 0 60525 5400.00000 0 10519806.366 -3827738.819 22945358.206 10 0 60525 6300.00000 0 11967560.552 -1434230.594 22504824.851 10 0 60525 7200.00000 0 13537673.808 782580.321 21628334.090 10 0 60525 8100.00000 0 15180122.030 2776432.073 20332775.375 10 0 60525 9000.00000 0 16838358.702 4511413.013 18643145.495 10 0 60525 9900.00000 0 18451607.736 5963208.748 16592077.176 10 0 60525 10800.00000 0 19957354.790 7119862.871 14219220.834 10 0 60525 11700.00000 0 21293934.078 7982020.130 11570490.025 10 0 60525 12600.00000 0 22403103.182 8562642.073 8697183.867 10 0 60525 13500.00000 0 23232498.253 8886207.119 5655002.230 10 0 60525 14400.00000 0 23737866.310 8987428.529 2502971.844 10 0 60525 15300.00000 0 23884980.150 8909544.164 -697696.348 10 0 60525 16200.00000 0 23651154.131 8702250.158 -3884796.597 10 0 60525 17100.00000 0 23026295.583 8419366.011 -6996341.157 10 0 60525 18000.00000 0 22013445.942 8116330.308 -9971772.332 10 0 60525 18900.00000 0 20628787.121 7847633.843 -12753149.380 10 0 60525 19800.00000 0 18901111.331 7664299.824 -15286286.193 10 0 60525 20700.00000 0 16870775.292 7611519.122 -17521816.590 10 0 60525 21600.00000 0 14588181.777 7726542.008 -19416165.521 10 0 60525 22500.00000 0 12111851.492 8036917.011 -20932406.479 10 0 60525 23400.00000 0 9506165.743 8559152.711 -22040987.732 10 0 60525 24300.00000 0 6838874.277 9297860.241 -22720312.857 10 0 60525 25200.00000 0 4178472.484 10245413.731 -22957163.992 10 0 60525 26100.00000 0 1591557.692 11382143.843 -22746959.547 10 0 60525 27000.00000 0 -859725.122 12677056.773 -22093841.419 10 0 60525 27900.00000 0 -3120041.732 14089048.785 -21010590.214 10 0 60525 28800.00000 0 -5142933.168 15568565.192 -19518370.431 10 0 60525 29700.00000 0 -6892500.906 17059633.833 -17646310.914 10 0 60525 30600.00000 0 -8344643.467 18502187.232 -15430929.150 10 0 60525 31500.00000 0 -9487794.191 19834575.306 -12915411.153 10 0 60525 32400.00000 0 -10323131.119 20996162.496 -10148761.499 10 0 60525 33300.00000 0 -10864252.290 21929899.662 -7184840.697 10 0 60525 34200.00000 0 -11136332.286 22584762.213 -4081309.359 10 0 60525 35100.00000 0 -11174797.782 22917951.764 -898500.399 10 0 60525 36000.00000 0 -11023580.006 22896768.760 2301758.126 10 0 60525 36900.00000 0 -10733019.670 22500077.588 5457346.045 10 0 60525 37800.00000 0 -10357514.282 21719303.023 8507056.227 10 0 60525 38700.00000 0 -9953008.233 20558916.717 11391778.333 10 0 60525 39600.00000 0 -9574432.172 19036393.879 14055638.321 10 0 60525 40500.00000 0 -9273199.890 17181642.460 16447072.101 10 0 60525 41400.00000 0 -9094867.972 15035928.949 18519813.367 10 0 60525 42300.00000 0 -9077056.307 12650345.661 20233777.470 10 0 60525 43200.00000 0 -9247716.313 10083883.015 21555825.466 10 0 60525 44100.00000 0 -9623819.011 7401186.247 22460394.830 10 0 60525 45000.00000 0 -10210517.605 4670088.677 22929985.786 10 0 60525 45900.00000 0 -11000819.544 1959022.485 22955494.833 10 0 60525 46800.00000 0 -11975782.042 -665587.324 22536389.646 10 0 60525 47700.00000 0 -13105223.584 -3141839.401 21680722.214 10 0 60525 48600.00000 0 -14348922.647 -5414680.391 20404979.739 10 0 60525 49500.00000 0 -15658254.875 -7437942.261 18733775.557 10 0 60525 50400.00000 0 -16978201.651 -9176009.266 16699385.057 10 0 60525 51300.00000 0 -18249647.464 -10605046.235 14341134.328 10 0 60525 52200.00000 0 -19411871.128 -11713737.628 11704651.941 10 0 60525 53100.00000 0 -20405127.294 -12503506.805 8840997.030 10 0 60525 54000.00000 0 -21173210.414 -12988206.406 5805679.314 10 0 60525 54900.00000 0 -21665893.360 -13193292.738 2657589.135 10 0 60525 55800.00000 0 -21841137.555 -13154518.696 -542142.310 10 0 60525 56700.00000 0 -21666980.496 -12916200.183 -3731330.568 10 0 60525 57600.00000 0 -21123019.727 -12529129.220 -6847950.129 10 0 60525 58500.00000 0 -20201428.959 -12048222.182 -9831347.014 10 0 60525 59400.00000 0 -18907461.729 -11530003.148 -12623427.421 10 0 60525 60300.00000 0 -17259419.503 -11030029.615 -15169798.300 10 0 60525 61200.00000 0 -15288083.929 -10600370.531 -17420836.634 10 0 60525 62100.00000 0 -13035635.686 -10287244.482 -19332665.650 10 0 60525 63000.00000 0 -10554104.180 -10128919.133 -20868018.138 10 0 60525 63900.00000 0 -7903412.362 -10153961.881 -21996969.419 10 0 60525 64800.00000 0 -5149098.034 -10379916.664 -22697525.229 10 0 60525 65700.00000 0 -2359806.667 -10812463.630 -22956052.879 10 0 60525 66600.00000 0 395339.568 -11445097.773 -22767547.191 10 0 60525 67500.00000 0 3049386.840 -12259340.422 -22135726.124 10 0 60525 68400.00000 0 5540098.519 -13225474.828 -21072954.409 10 0 60525 69300.00000 0 7812301.824 -14303774.690 -19599996.967 10 0 60525 70200.00000 0 9819934.875 -15446173.581 -17745607.245 10 0 60525 71100.00000 0 11527709.576 -16598304.417 -15545958.888 10 0 60525 72000.00000 0 12912322.033 -17701822.479 -13043932.340 10 0 60525 72900.00000 0 13963161.431 -18696913.444 -10288270.821 10 0 60525 73800.00000 0 14682489.555 -19524880.147 -7332622.718 10 0 60525 74700.00000 0 15085085.503 -20130698.501 -4234489.795 10 0 60525 75600.00000 0 15197372.711 -20465434.505 -1054102.357 10 0 60525 76500.00000 0 15056067.216 -20488420.295 2146756.075 10 0 60525 77400.00000 0 14706406.056 -20169097.604 5305951.105 10 0 60525 78300.00000 0 14200032.235 -19488451.204 8362203.090 10 0 60525 79200.00000 0 13592626.702 -18439972.395 11256272.497 10 0 60525 80100.00000 0 12941388.059 -17030112.430 13932102.097 10 0 60525 81000.00000 0 12302466.599 -15278207.177 16337894.337 10 0 60525 81900.00000 0 11728460.626 -13215876.340 18427103.801 10 0 60525 82800.00000 0 11266080.014 -10885922.268 20159326.545 10 0 60525 83700.00000 0 10954074.477 -8340773.867 21501070.323 10 0 60525 84600.00000 0 10821512.736 -5640539.636 22426392.054 10 0 60525 85500.00000 0 10886484.018 -2850749.629 22917391.387 10 0 60526 0.00000 0 11155275.694 -39878.905 22964551.811 10 0 60526 900.00000 0 11622061.409 2723248.051 22566923.319 10 0 60526 1800.00000 0 12269112.507 5372062.357 21732143.387 10 0 60526 2700.00000 0 13067524.882 7844764.029 20476295.763 10 0 60526 3600.00000 0 13978431.400 10086637.285 18823609.003 10 0 60526 4500.00000 0 14954650.386 12052074.606 16805999.741 10 0 60526 5400.00000 0 15942702.291 13706226.318 14462468.228 10 0 60526 6300.00000 0 16885111.207 15026207.759 11838356.448 10 0 60526 7200.00000 0 17722895.522 16001814.023 8984481.838 10 0 60526 8100.00000 0 18398143.716 16635712.500 5956162.145 10 0 60526 9000.00000 0 18856567.032 16943105.005 2812149.368 10 0 60526 9900.00000 0 19049921.166 16950873.429 -386507.088 10 0 60526 10800.00000 0 18938194.035 16696244.609 -3577646.198 10 0 60526 11700.00000 0 18491466.009 16225030.556 -6699206.828 10 0 60526 12600.00000 0 17691362.461 15589518.331 -9690440.832 10 0 60526 13500.00000 0 16532035.465 14846099.017 -12493103.368 10 0 60526 14400.00000 0 15020631.245 14052736.521 -15052596.341 10 0 60526 15300.00000 0 13177221.768 13266383.991 -17319041.637 10 0 60526 16200.00000 0 11034201.607 12540457.979 -19248262.332 10 0 60526 17100.00000 0 8635173.917 11922478.095 -20802651.950 10 0 60526 18000.00000 0 6033371.130 11451972.840 -21951914.130 10 0 60526 18900.00000 0 3289675.691 11158740.893 -22673657.891 10 0 60526 19800.00000 0 470323.106 11061541.900 -22953836.646 10 0 60526 20700.00000 0 -2355617.014 11167272.429 -22787022.312 10 0 60526 21600.00000 0 -5118876.894 11470661.994 -22176509.298 10 0 60526 22500.00000 0 -7752633.722 11954501.869 -21134246.492 10 0 60526 23400.00000 0 -10195049.829 12590396.687 -19680598.866 10 0 60526 24300.00000 0 -12391604.372 13340006.584 -17843943.693 10 0 60526 25200.00000 0 -14297119.799 14156726.792 -15660109.629 10 0 60526 26100.00000 0 -15877399.335 14987732.996 -13171670.075 10 0 60526 27000.00000 0 -17110408.294 15776305.331 -10427105.153 10 0 60526 27900.00000 0 -17986951.305 16464332.071 -7479849.203 10 0 60526 28800.00000 0 -18510818.893 16994886.606 -4387243.072 10 0 60526 29700.00000 0 -18698399.265 17314768.302 -1209412.287 10 0 60526 30600.00000 0 -18577773.730 17376899.625 1991906.414 10 0 60526 31500.00000 0 -18187335.792 17142478.133 5154566.733 10 0 60526 32400.00000 0 -17573993.893 16582792.638 8217218.900 10 0 60526 33300.00000 0 -16791034.967 15680627.139 11120496.633 10 0 60526 34200.00000 0 -15895739.867 14431193.718 13808162.001 10 0 60526 35100.00000 0 -14946851.624 12842555.396 16228186.466 10 0 60526 36000.00000 0 -14002003.150 10935521.332 18333747.936 10 0 60526 36900.00000 0 -13115212.177 8743018.617 20084125.502 10 0 60526 37800.00000 0 -12334547.917 6308966.485 21445475.770 10 0 60526 38700.00000 0 -11700066.386 3686699.083 22391477.036 10 0 60526 39600.00000 0 -11242099.914 937001.305 22903830.017 10 0 60526 40500.00000 0 -10979971.530 -1874162.154 22972606.465 10 0 60526 41400.00000 0 -10921187.291 -4678132.027 22596439.602 10 0 60526 42300.00000 0 -11061139.959 -7406152.735 21782552.947 10 0 60526 43200.00000 0 -11383336.380 -9991977.854 20546626.844 10 0 60526 44100.00000 0 -11860139.424 -12374376.525 18912504.665 10 0 60526 45000.00000 0 -12453994.091 -14499438.247 16911743.402 10 0 60526 45900.00000 0 -13119087.295 -16322581.555 14583016.125 10 0 60526 46800.00000 0 -13803372.670 -17810183.789 11971376.465 10 0 60526 47700.00000 0 -14450876.240 -18940764.419 9127398.010 10 0 60526 48600.00000 0 -15004186.619 -19705672.597 6106204.050 10 0 60526 49500.00000 0 -15407025.184 -20109249.938 2966405.481 10 0 60526 50400.00000 0 -15606787.683 -20168461.337 -231033.081 10 0 60526 51300.00000 0 -15556949.395 -19912008.905 -3423977.221 10 0 60526 52200.00000 0 -15219231.121 -19378965.978 -6550333.513 10 0 60526 53100.00000 0 -14565433.031 -18616988.564 -9549263.071 10 0 60526 54000.00000 0 -13578857.029 -17680179.727 -12362373.479 10 0 60526 54900.00000 0 -12255255.613 -16626697.328 -14934864.998 10 0 60526 55800.00000 0 -10603265.119 -15516206.685 -17216607.656 10 0 60526 56700.00000 0 -8644303.162 -14407286.380 -19163127.334 10 0 60526 57600.00000 0 -6411932.792 -13354897.545 -20736480.816 10 0 60526 58500.00000 0 -3950718.604 -12408024.215 -21906002.060 10 0 60526 59400.00000 0 -1314621.620 -11607584.975 -22648904.750 10 0 60526 60300.00000 0 1435000.727 -10984704.476 -22950729.120 10 0 60526 61200.00000 0 4231706.364 -10559417.939 -22805624.257 10 0 60526 62100.00000 0 7006495.912 -10339863.220 -22216460.473 10 0 60526 63000.00000 0 9690450.237 -10321994.198 -21194769.707 10 0 60526 63900.00000 0 12217368.336 -10489826.968 -19760515.397 10 0 60526 64800.00000 0 14526295.658 -10816207.660 -17941696.628 10 0 60526 65700.00000 0 16563837.734 -11264068.514 -15773794.655 10 0 60526 66600.00000 0 18286163.044 -11788118.115 -13299073.079 10 0 60526 67500.00000 0 19660612.283 -12336893.288 -10565745.856 10 0 60526 68400.00000 0 20666847.897 -12855084.865 -7627029.936 10 0 60526 69300.00000 0 21297497.188 -13286038.065 -4540101.720 10 0 60526 70200.00000 0 21558263.756 -13574320.938 -1364978.319 10 0 60526 71100.00000 0 21467504.490 -13668251.703 1836653.932 10 0 60526 72000.00000 0 21055291.792 -13522277.764 5002640.306 10 0 60526 72900.00000 0 20362002.270 -13099105.760 8071564.128 10 0 60526 73800.00000 0 19436492.860 -12371492.774 10983935.212 10 0 60526 74700.00000 0 18333942.278 -11323623.348 13683337.328 10 0 60526 75600.00000 0 17113449.373 -9952014.497 16117512.870 10 0 60526 76500.00000 0 15835489.512 -8265910.789 18239364.484 10 0 60526 77400.00000 0 14559335.651 -6287152.815 20007855.217 10 0 60526 78300.00000 0 13340551.572 -4049524.168 21388790.985 10 0 60526 79200.00000 0 12228661.359 -1597603.453 22355471.482 10 0 60526 80100.00000 0 11265091.524 1014831.901 22889198.119 10 0 60526 81000.00000 0 10481470.638 3726785.049 22979630.200 10 0 60526 81900.00000 0 9898356.444 6472321.867 22624983.125 10 0 60526 82800.00000 0 9524442.793 9183062.918 21832065.098 10 0 60526 83700.00000 0 9356279.017 11790783.808 20616151.491 10 0 60526 84600.00000 0 9378513.296 14230017.924 19000698.714 10 0 60526 85500.00000 0 9564650.042 16440555.061 17016902.192 99